Location: DaltonSkyGazer Observatory
(42.4858°N, 73.1565°W)
Time: 18:21:02
(UTC-04:00)

Helios 1B - Visible Passes

Search period start: 24 July 2016 00:00
Search period end: 03 August 2016 00:00
Orbit: 622 x 623 km, 98.1° (Epoch: 23 July)

Date Brightness Start Highest point End Pass type
(mag) Time Alt. Az. Time Alt. Az. Time Alt. Az.
24 Jul 5.8 01:05:43 36° WNW 01:05:43 36° WNW 01:08:43 10° NNW visible
24 Jul 6.1 23:46:50 26° ENE 23:46:50 26° ENE 23:50:16 10° N visible
25 Jul 6.3 01:24:04 24° WNW 01:24:04 24° WNW 01:26:29 10° NW visible
26 Jul 5.7 00:05:12 37° NE 00:05:12 37° NE 00:08:41 10° N visible
26 Jul 6.8 01:42:25 16° WNW 01:42:25 16° WNW 01:44:02 10° NW visible
27 Jul 5.4 00:23:33 49° NNE 00:23:33 49° NNE 00:26:56 10° N visible
27 Jul 7.2 02:00:46 10° WNW 02:00:46 10° WNW 02:00:57 10° WNW visible
27 Jul 7.1 23:04:41 10° ENE 23:05:15 10° ENE 23:05:55 10° NE visible
28 Jul 5.4 00:41:54 48° NNW 00:41:54 48° NNW 00:45:04 10° NNW visible
28 Jul 6.7 23:23:02 16° ENE 23:23:06 16° ENE 23:25:41 10° NNE visible
29 Jul 5.9 01:00:15 36° NW 01:00:15 36° NW 01:03:05 10° NNW visible
29 Jul 6.3 23:41:23 23° ENE 23:41:23 23° ENE 23:44:25 10° NNE visible
30 Jul 6.3 01:18:37 25° NW 01:18:37 25° NW 01:20:56 10° NNW visible
30 Jul 6.0 23:59:44 31° NE 23:59:44 31° NE 00:02:52 10° N visible
31 Jul 6.8 01:36:58 17° WNW 01:36:58 17° WNW 01:38:33 10° NW visible
01 Aug 5.7 00:18:06 40° NNE 00:18:06 40° NNE 00:21:11 10° N visible
01 Aug 7.2 01:55:19 11° WNW 01:55:19 11° WNW 01:55:47 10° WNW visible
02 Aug 5.7 00:36:27 41° N 00:36:27 41° N 00:39:22 10° NNW visible
02 Aug 6.9 23:17:35 14° ENE 23:17:35 14° ENE 23:19:36 10° NNE visible
